This demonstration page uses our WeatherBlox Daily Observations layout. Learn more.

Left ArrowRight Arrow

Hourly Observations for April 6, 2022

Temp ( °F °C ) Dew Point ( °F °C ) Humidity (%) Winds ( mph kmh ) Pressure ( in mb ) Visibility ( mi km ) Precip ( " mm )
12:53 am 00:53 Clear 38 3.3 19 -7.2 46 46 W 9 15 29.74 1007 10 16 0.00 0.00
1:53 am 01:53 Clear 38 3.3 21 -6.1 51 51 W 9 15 29.73 1007 10 16 0.00 0.00
2:53 am 02:53 Clear 35 1.7 22 -5.6 59 59 WSW 13 20 29.72 1007 10 16 0.00 0.00
3:53 am 03:53 Clear 34 1.1 21 -6.1 59 59 WSW 15 24 29.72 1007 10 16 0.00 0.00
4:53 am 04:53 Clear 38 3.3 18 -7.8 44 44 W 18 30 29.72 1006 10 16 0.00 0.00
5:53 am 05:53 Clear 39 3.9 17 -8.3 41 41 W 18 30 29.71 1006 10 16 0.00 0.00
6:53 am 06:53 Clear 40 4.4 15 -9.4 36 36 W 16 26 29.72 1006 10 16 0.00 0.00
7:53 am 07:53 Sunny 34 1.1 17 -8.3 50 50 WSW 15 24 29.75 1008 10 16 0.00 0.00
8:53 am 08:53 Sunny 46 7.8 15 -9.4 29 29 W 24 39 29.75 1007 10 16 0.00 0.00
9:53 am 09:53 Partly Cloudy 50 10 16 -8.9 26 26 NW 32 52 29.76 1008 10 16 0.00 0.00
10:53 am 10:53 Mostly Cloudy 52 11.1 17 -8.3 25 25 NW 35 56 29.78 1008 10 16 0.00 0.00
11:53 am 11:53 Cloudy 52 11.1 23 -5 32 32 NW 38 61 29.80 1009 8 13 0.00 0.00
12:53 pm 12:53 Cloudy with Haze 51 10.6 26 -3.3 38 38 WNW 40 65 29.81 1009 6 10 0.00 0.00
1:53 pm 13:53 Cloudy with Light Rain 46 7.8 33 0.6 61 61 NNW 32 52 29.85 1011 10 16 0.00 0.00
2:53 pm 14:53 Cloudy 49 9.4 27 -2.8 43 43 NW 32 52 29.87 1012 10 16 0.00 0.00
3:53 pm 15:53 Mostly Cloudy 45 7.2 32 0 61 61 NNW 32 52 29.94 1014 10 16 0.00 0.00
4:53 pm 16:53 Cloudy 46 7.8 24 -4.4 42 42 NNW 31 50 29.96 1014 10 16 0.00 0.00
5:53 pm 17:53 Mostly Cloudy 47 8.3 24 -4.4 41 41 NNW 31 50 29.96 1015 10 16 0.00 0.00
6:53 pm 18:53 Mostly Cloudy 48 8.9 22 -5.6 36 36 NW 21 33 29.98 1015 10 16 0.00 0.00
7:53 pm 19:53 Partly Cloudy 47 8.3 22 -5.6 37 37 NNW 26 43 30.00 1016 10 16 0.00 0.00
8:53 pm 20:53 Clear 45 7.2 24 -4.4 44 44 NW 18 30 29.99 1016 10 16 0.00 0.00
9:53 pm 21:53 Mostly Clear 44 6.7 29 -1.7 55 55 NW 20 31 30.01 1016 10 16 0.00 0.00
10:53 pm 22:53 Partly Cloudy 43 6.1 30 -1.1 60 60 WNW 18 30 30.01 1016 10 16 0.00 0.00
11:53 pm 23:53 Cloudy 44 6.7 30 -1.1 58 58 NW 20 31 30.00 1016 10 16 0.00 0.00

Powered by AerisWeather